Regional Weather Roundup
Issued by NWS Wakefield, VA

Home | Current Version | Previous Version | Graphics & Text | Print | Product List | Glossary On
Versions: 1 2 3 4 5 6 7 8 9 10 11 12 13 14 15 16 17 18 19 20 21 22 23 24 25 26 27 28 29 30 31 32 33 34 35 36 37 38 39 40 41 42 43 44 45 46 47 48 49 50
367
ASUS41 KAKQ 251715
RWRAKQ

REGIONAL WEATHER ROUNDUP
NATIONAL WEATHER SERVICE WAKEFIELD VA
100 PM EDT THU AUG 25 2016

Note: "fair" indicates few or no clouds below 12,000 feet with no
significant weather and/or obstructions to visibility. * = Denotes
station may not report precipitation (e.g., rain,snow,etc.),
thunder or fog.

VAZ042-051-052>054-056-251800-
NORTHERN VIRGINIA

CITY           SKY/WX    TMP DP  RH WIND       PRES   REMARKS
WASH NATIONAL  CLOUDY    84  71  65 S13       30.08F
DULLES         MOSUNNY   88  70  55 S9        30.07F
FORT BELVOIR   MOSUNNY   83  70  64 VRB5      30.08F
QUANTICO       CLOUDY    84  72  67 S12       30.08F
FREDERICKSBRG*   N/A     86  72  62 S8        30.08F
STAFFORD*      CLOUDY    85  69  60 SW7       30.12F
WARRENTON      CLOUDY    84  68  58 S3        30.09S
CULPEPER*      CLOUDY    84  74  72 S5        30.09F
MANASSAS*      SUNNY     84  72  65 SW8       30.08F
LEESBURG*      MOSUNNY   90  73  58 W5        30.08F HX  98
WINCHESTER     CLOUDY    84  72  65 SW7       30.08F
FRONT ROYAL*   FAIR      84  73  70 W5        30.08F
LURAY*         FAIR      82  72  69 SW3       30.10F
$$

VAZ048-049-060>072-079>083-251800-
CENTRAL AND SOUTH CENTRAL VIRGINIA

CITY           SKY/WX    TMP DP  RH WIND       PRES   REMARKS
RICHMOND       PTSUNNY   88  66  48 S15       30.10F
CHESTERFIELD*  FAIR      90  61  37 S13       30.12F
PETERSBURG*    SUNNY     89  66  46 S9        30.13F
HANOVER        MOSUNNY   87  66  49 S9        30.12F
TAPPAHANNOCK*  MOSUNNY   86  68  54 SW12      30.11F
QUINTON*       FAIR      86  69  55 SW9       30.11F
CHARLOTTSVILLE MOSUNNY   88  73  61 S7        30.09F HX  95
GORDONSVILLE*  FAIR      86  73  66 S7        30.09F
ORANGE*          N/A     88  72  58 SE6       30.11S
LOUISA*        MOSUNNY   90  75  62 S6        30.09F HX 100
BUMPASS*       FAIR      83  73  69 S5        30.10F
FARMVILLE*     MOSUNNY   86  71  59 S7        30.10F
CREWE*         FAIR      87  70  56 S8        30.12F
FORT PICKETT*  NOT AVBL
CHASE CITY*    FAIR      85  65  51 S7        30.14F
CLARKSVILLE*   FAIR      86  68  54 SW9       30.14F
SOUTH HILL*    SUNNY     87  69  53 SW6       30.20F
LAWRENCEVILLE* FAIR      87  67  52 S9        30.13F
EMPORIA*       SUNNY     84  66  54 S7        30.15F
$$

VAZ088>098-251800-
SOUTHEAST VIRGINIA

CITY           SKY/WX    TMP DP  RH WIND       PRES   REMARKS
NORFOLK        MOSUNNY   86  67  52 VRB5      30.13F
VIRGINIA BEACH MOSUNNY   89  64  43 E9        30.13F
NORFOLK NAVAL  MOSUNNY   86  66  51 VRB6      30.14F
WEST POINT*    SUNNY     87  65  47 S12       30.13F
SALUDA*        FAIR      85  69  57 S8        30.12F
NEWPORT NEWS   MOSUNNY   86  68  54 S15       30.12F
LANGLEY AFB    SUNNY     86  67  53 S8        30.12F
FORT EUSTIS    SUNNY     88  69  54 VRB6      30.11F
WILLIAMSBURG*  SUNNY     90  66  45 S7        30.13F
HR EXEC AP*    FAIR      88  68  51 S10       30.15F
FRANKLIN*      CLOUDY    84  67  57 S6        30.14F
US460-WAKEFLD  SUNNY     86  66  51 SW5       30.13F
$$

VAZ020-022-025-037-045-251800-
WEST CENTRAL AND SOUTHWEST VIRGINIA

CITY           SKY/WX    TMP DP  RH WIND       PRES   REMARKS
STAUNTON*      PTSUNNY   85  71  62 S6        30.13F
WAYNESBORO*    FAIR      84  70  63 SW5       30.14F
HOT SPRINGS VA CLOUDY    74  72  93 W9        30.28S
LYNCHBURG      SUNNY     87  71  58 VRB3      30.14F
DANVILLE       SUNNY     86  71  60 VRB7      30.14F
SOUTH BOSTON*  FAIR      90  68  48 S5        30.13F
MARTINSVILLE   SUNNY     85  72  65 SW3       30.18F
ROANOKE        MOSUNNY   88  72  58 VRB5      30.16F
BLACKSBURG     CLOUDY    85  71  64 W5        30.24F
DUBLIN*        CLOUDY    84  71  64 W7        30.23F
MARION*        PTSUNNY   80  71  75 W12       30.29S
HILLSVILLE*    MOSUNNY   80  70  70 W9        30.25F
RICHLANDS*     PTSUNNY   79  72  80 W8        30.27S
WISE*          PTSUNNY   81  63  54 W7        30.29S
ABINGDON*      CLOUDY    81  72  73 SW8       30.26S
$$

MDZ021>025-VAZ099-100-251800-
SOUTHERN MARYLAND AND THE DELMARVA PENINSULA

CITY           SKY/WX    TMP DP  RH WIND       PRES   REMARKS
PATUXENT RIVER PTSUNNY   85  67  54 S13       30.09F
BAY BRIDGE APT MOSUNNY   86  70  58 S16       30.07F
LEONARDTOWN    MOSUNNY   82  66  57 S7        30.11F
DOVER          SUNNY     86  73  65 S16       30.06F
GEORGETOWN     SUNNY     86  68  54 SW13      30.10F
EASTON         MOSUNNY   86  73  66 S14       30.12F
CAMBRIDGE      SUNNY     82  68  61 SW9G16    30.09F
SALISBURY      MOSUNNY   84  69  60 S9G17     30.11F
OCEAN CITY     SUNNY     82  72  71 S9G18     30.12F
WALLOPS ISLAND PTSUNNY   85  62  46 S15       30.13F
ACCOMACK*      PTSUNNY   85  67  54 S10       30.12F
$$

NCZ012>017-030>032-251800-
NORTH CENTRAL AND EASTERN NORTH CAROLINA

CITY           SKY/WX    TMP DP  RH WIND       PRES   REMARKS
ROANOKE RAPIDS FAIR      84  68  58 S9        30.15F
RALEIGH        PTSUNNY   88  64  44 SW10      30.17F
ELIZABETH CITY CLOUDY    83  66  56 E5        30.15F
AHOSKIE*       SUNNY     82  68  62 CALM      30.15F
EDENTON*       SUNNY     86  59  39 S7        30.16F
CURRITUCK*       N/A     85  67  56 CALM      30.15F
KILL DEVIL HLS SUNNY     86  71  60 E6        30.16S
MANTEO         PTSUNNY   82  67  60 SE5       30.17F
CAPE HATTERAS  SUNNY     85  65  51 MISG      30.17S
TARBORO*       FAIR      87  69  54 CALM      30.16F
GOLDSBORO      MOSUNNY   86  68  54 VRB3      30.15F
WASHINGTON     SUNNY     84  68  57 CALM      30.16F
GREENVILLE     CLOUDY    86  68  54 CALM      30.17F
NEW BERN       MOSUNNY   85  65  51 NW5       30.17F
WILMINGTON     MOSUNNY   85  70  60 E8        30.15F
$$

VAZ048-251800-
ELSEWHERE

CITY           SKY/WX    TMP DP  RH WIND       PRES   REMARKS
HARRISBURG PA  CLOUDY    83  72  69 CALM      30.05F
BALTIMORE      CLOUDY    85  69  58 S9        30.06F
ANNAPOLIS      PTSUNNY   84  71  65 SE10      30.07F
ANDREWS AFB    MOSUNNY   84  69  61 SW12      30.08S
PHILADELPHIA   PTSUNNY   85  68  56 SW15G22   30.07F
HENDERSON NC   SUNNY     81  65  59 SW5       30.16F
GREENSBORO     PTSUNNY   87  69  54 W6        30.17F
ROCKY MOUNT    SUNNY     86  67  52 MISG      30.16F
$$

VAZ100-251800-
MARINE

STATION/POSITION TIME  TEMP    WIND        PRES    WAVE   SWELL
                       AIR SEA DIR/SP/G            HT/PER HT/PER
                 (UTC) (F)     (DEG/KT/KT) (MB)    (FT/S) (FT/S)
BRANDYWINE LGT   1600   75     180/ 13/ 14   N/A
CAPE MAY NJ      1600   77 75  160/ 10/ 13 1019.7F
LEWES DE         1600   83 73  210/  8/ 11 1019.8F
OCEAN-CITY-INLET 1600   76 76  200/  7/ 10 1021.1F
WACHAPREAGUE VA  1600   82 80  190/ 10/ 12 1020.8F
THOMAS POINT MD  1700   81 81  180/ 14/ 15 1019.6F
GOOSES REEF MD   1610   82     200/ 12/ 14 1019.7F
COVE POINT MD    1600   81     210/ 13/ 17 1019.9F
SOLOMONS ISLAND  1600   82 83  200/ 10/ 13   N/A
BISHOPS HEAD MD  1600   80 80  180/ 12/ 16 1020.2F
PINEY POINT MD   1600          230/ 10/ 12   N/A
POTOMAC MD       1600   81 83  200/ 10/ 14 1018.9F   1/ 2
CAMBRIDGE MD     1600   83 82  180/  7/ 13 1018.7F
LEWISETTA VA     1600   82 81  190/ 11/ 14 1019.2F
RAPPAHANNOCK LGT 1600          190/ 11/ 12 1021.4F
STINGRAY PT      1600   82 83  160/  8/ 10 1020.9F   1
YORK RVR RNG VA  1600   81     200/  8/  9 1020.3F
YORKTOWN VA      1600   82 82  210/  7/ 10 1020.2F
JAMESTOWN VA     1600   82 84  180/  8/ 12   N/A     0
DOMINION TERM VA 1600   81     210/  6/  7 1021.1F
KIPTOPEKE VA     1600      80  220/  7/  9   N/A
CHES BAY BRIDGE  1600   82 80   70/  1/  3 1021.0F
CAPE HENRY VA    1600   80     130/  9/ 11   N/A
WILLOUBY STN VA  1600   80     250/  4/  5   N/A
CAPE HENRY BUOY  1612      79                N/A     2/10   2/11
1ST LANDING BUOY 1610   80     130/  6/  8 1020.9F
CAPE CHARLES BUO 1626      78                N/A     3/10   2/11
OFFSHORE WE BUOY 1621      80                N/A     3/10   2/11
64NM E OF VA BCH 1650   79 82  320/  6/  8 1021.3F   3/10   3/10
DUCK PIER NC     1600   81 78  120/  5/  6 1021.3F
44100 DUCK FRF   1605      82                N/A     2/10
44056 DUCK FRF   1611      79                N/A     2/11   2/11
OREGON INLET NC  1600   80 79   80/  6/  8 1021.8F
HATTERAS NC      1600   80 79   10/  7/ 11 1021.6F
DIAMOND SHLS NC  1650   81 85   80/  6/  8 1021.5F   3/10   3/10
CAPE LOOKOUT NC  1700   82      70/  5/  6 1021.2F
$$




USA.gov is the U.S. government's official web portal to all federal, state and local government web resources and services.